Miscellaneous Local Product
Issued by NWS Hastings, NE

Home | Current Version | Previous Version | Graphics & Text | Print | Product List | Glossary On
Versions: 1 2 3 4 5 6 7 8 9 10 11 12 13 14 15 16 17 18 19 20 21 22 23 24 25 26 27 28 29 30 31 32 33 34 35 36 37 38 39 40 41 42 43 44 45 46 47 48 49 50
068
AXUS43 KGID 260502
MISGRI

GID CWA HOURLY WEATHER ROUNDUP
NATIONAL WEATHER SERVICE HASTINGS NE
1200 AM CDT TUE JUL 26 2016

NOTE: "FAIR" INDICATES FEW OR NO CLOUDS BELOW 12,000 FEET WITH NO
SIGNIFICANT WEATHER AND/OR OBSTRUCTIONS TO VISIBILITY.

...SOUTH CENTRAL NEBRASKA...

CITY           SKY/WX    TMP DP  RH WIND       PRES   REMARKS
GRAND ISLAND   CLEAR     71  62  73 SE8       30.13R
HASTINGS       CLEAR     73  61  65 SE10      30.14R
KEARNEY        CLEAR     66  61  82 SE6       30.15R
ORD            CLEAR     69  63  81 CALM      30.11R
YORK           CLEAR     70  64  83 SE6       30.13R
AURORA         CLEAR     67  64  90 SE6       30.13R
LEXINGTON      CLEAR     72  65  79 SE8       30.14R
HOLDREGE       CLEAR     68  61  76 SE5       30.15R
HEBRON         CLEAR     65  61  86 CALM      30.11R

...NEBRASKA PANHANDLE...

CITY           SKY/WX    TMP DP  RH WIND       PRES   REMARKS
CHADRON        CLEAR     80  60  50 S25G37    30.02R
ALLIANCE       CLEAR     70  62  76 S13       30.10F
SCOTTSBLUFF    CLEAR     75  61  61 SE12      30.10R
SIDNEY         CLEAR     71  61  70 S15       30.17S

...WESTERN AND NORTH CENTRAL NEBRASKA...

CITY           SKY/WX    TMP DP  RH WIND       PRES   REMARKS
VALENTINE      CLEAR     74  62  66 S13       30.08R
AINSWORTH      CLEAR     72  63  72 S10       30.10R
ONEILL         CLEAR     71  63  75 SE8       30.11S
BROKEN BOW     CLEAR     68  64  87 SE5       30.14R
IMPERIAL       CLOUDY    73  63  70 SE13      30.14R
NORTH PLATTE   CLEAR     72  65  78 SE8       30.13R
MCCOOK         PTCLDY    73  63  70 SE10      30.13R

...EASTERN NEBRASKA...

CITY           SKY/WX    TMP DP  RH WIND       PRES   REMARKS
NORFOLK        CLEAR     69  62  78 S7        30.11R
SO SIOUX CITY  CLEAR     71  65  81 SE6       30.08S
TEKAMAH        CLEAR     69  65  86 CALM      30.09S
COLUMBUS       CLEAR     64  55  72 CALM      30.11S
ALBION         CLEAR     67  62  85 CALM      30.12S
OMAHA EPPLEY   CLEAR     75  66  73 SE6       30.08F
OFFUTT AFB     CLEAR     67  67 100 E2        30.08F
MILLARD        CLEAR     72  68  88 CALM      30.09S
LINCOLN        CLEAR     71  64  78 CALM      30.10S
NEBRASKA CITY  CLEAR     71  68  91 CALM      30.09S
BEATRICE       CLEAR     69  65  88 CALM      30.10R
FALLS CITY     CLEAR     71  67  87 CALM      30.06F

...NORTHERN KANSAS...

CITY           SKY/WX    TMP DP  RH WIND       PRES   REMARKS
GOODLAND       PTCLDY    71  65  81 S9        30.16S
HILL CITY      PTCLDY    72  65  78 E3        30.13R
NORTON         CLEAR     70  61  73 E3        30.13S
SMITH CENTER   CLEAR     66  64  94 E7        30.13R
BELOIT         CLEAR     66  64  94 CALM      30.10R
HAYS           CLEAR     72  61  68 SE5       30.13R
RUSSELL        CLEAR     70  66  87 SE3       30.11R
CONCORDIA      CLEAR     69  64  84 CALM      30.10R
SALINA         CLEAR     75  68  78 CALM      30.07R
TOPEKA         MOCLDY    75  67  76 CALM      30.05F



USA.gov is the U.S. government's official web portal to all federal, state and local government web resources and services.